Location: Cucq
(50.4773°N, 1.6202°E)
Time: 05:14:05
(UTC+00:00)

Resurs 1-4 Rocket - Pass Details

Date: 07 August 2020
Orbit: 799 x 815 km, 98.6° (Epoch: 23 September)

Event Time Altitude Azimuth Distance (km) Brightness Sun altitude
Rises 01:29:28 0° 16° (NNE) 3,337 6.9 -20.3°
Reaches altitude 10° 01:31:50 10° 19° (NNE) 2,399 5.8 -20.2°
Maximum altitude 01:37:08 71° 103° (ESE) 854 2.2 -19.8°
Enters shadow 01:39:23 35° 178° (S) 1,285 2.7 -19.7°
